Content
SEND FEEDBACK

Daily
Averages
Monthly
Summary
Turkmenistan

ASHGABAT, TURKMENISTAN


Home > Asia > Turkmenistan
Elevation: 236 meters     Latitude: 37 58N     Longitude: 058 20E

WEATHER
 
SELECT A DAY
Number of Records: 177,426;   Date Range: 3/15/97 - 8/30/14
 
SHARE

PRINT THIS DATA

[ ← Previous Day ]
WEATHER ALMANAC - 21 JUNE, 2013
[ Next Day → ]
[ °F ]   °C
Weather ElementAverageHighLow
Temperature30.1 °C34 °C (2:00 pm)26 °C (6:00 am)
Dewpoint12.3 °C16.1 °C (11:00 am)6 °C (1:00 am)
Humidity31.6 %45 % (8:00 am)21 % (1:00 am)
Barometer1007.8 hPa1009.1 hPa (8:00 am)1005.4 hPa (2:00 am)
Wind Speed11.6 km/h21.6 km/h (1:00 am)
Wind Gust32.3 km/h (2:00 pm)
Weather ElementAverage
Visibility9.8 km
Wind DirectionWNW (275.7 °)

Weather ElementTotal
Precipitation---
Cooling Degree Days11.7 (Base 18.3)
Growing Degree Days20 (Base 10)
Averaged from 30 records on 21 June, 2013
WEATHER CONDITIONS BREAKOUT
WIND DIRECTION BREAKOUT
WEATHER BY HOUR - 21 JUNE, 2013
[ °F ]   °C
Local TimeTemperatureDewpointHumidityBarometerVisibilityWind DirectionWind SpeedGust SpeedPrecipitationEventsConditions
1:00 AM31 °C6 °C21 %1006.1 hPa10 kmWNW (290°)21.6 km/hMostly Cloudy
2:00 AM29.4 °C11.1 °C22 %1005.4 hPa9.7 kmWest (280°)10.8 km/hScattered Clouds
2:00 AM30 °C6 °C22 %1006.1 hPa10 kmWest (280°)10.8 km/hMostly Cloudy
3:00 AM29 °C8 °C27 %1006.1 hPa10 kmNW (310°)14.3 km/hMostly Cloudy
4:00 AM28 °C9 °C30 %1006.1 hPa10 kmNW (310°)14.3 km/hMostly Cloudy
5:00 AM26.7 °C13.9 °C35 %1006.8 hPa9.7 kmWNW (300°)18 km/hScattered Clouds
5:00 AM27 °C11 °C37 %1007.1 hPa10 kmWNW (300°)18 km/hPartly Cloudy
6:00 AM26 °C12 °C42 %1008.1 hPa10 kmWest (270°)10.8 km/hMostly Cloudy
7:00 AM27 °C12 °C39 %1008.1 hPa10 kmWNW (300°)7.2 km/hMostly Cloudy
8:00 AM27.2 °C15.6 °C38 %1007.8 hPa9.7 kmNW (310°)10.8 km/hScattered Clouds
8:00 AM27 °C14 °C45 %1009.1 hPa10 kmNW (310°)10.8 km/hMostly Cloudy
9:00 AM28 °C14 °C42 %1009.1 hPa10 kmNW (320°)10.8 km/hMostly Cloudy
10:00 AM28 °C14 °C42 %1009.1 hPa10 kmNW (310°)10.8 km/hMostly Cloudy
11:00 AM30 °C16.1 °C33 %1008.5 hPa9.7 kmWNW (300°)7.2 km/hRainLight Rain Showers
11:00 AM31 °C13 °C33 %1009.1 hPa10 kmNW (310°)7.2 km/hOvercast
12:00 PM31 °C12 °C31 %1008.1 hPa10 kmNorth (10°)10.8 km/hOvercast
1:00 PM33 °C11 °C26 %1009.1 hPa10 kmNNW (330°)10.8 km/hOvercast
2:00 PM33.3 °C14.4 °C23 %1008.1 hPa9.7 kmWSW (240°)7.2 km/hPartly Cloudy
2:00 PM34 °C10 °C23 %1008.1 hPa10 kmNE (40°)7.2 km/h32.3 km/hMostly Cloudy
3:00 PM33 °C11 °C26 %1008.1 hPa10 kmNNE (30°)10.8 km/hRain-ThunderstormLight Thunderstorms and Rain
4:00 PM33 °C13 °C29 %1008.1 hPa10 kmNNW (340°)18 km/hOvercast
5:00 PM32.2 °C16.1 °C27 %1007.8 hPa9.7 kmNorth (350°)18 km/hPartly Cloudy
5:00 PM33 °C12 °C28 %1008.1 hPa10 kmNNW (340°)18 km/hOvercast
6:00 PM33 °C11 °C26 %1008.1 hPa10 kmNNW (330°)10.8 km/hMostly Cloudy
7:00 PM33 °C12 °C28 %1008.1 hPa10 kmNNW (330°)14.3 km/hScattered Clouds
8:00 PM31.7 °C16.1 °C28 %1007.5 hPa9.7 kmNW (320°)7.2 km/hScattered Clouds
8:00 PM32 °C13 °C31 %1008.1 hPa10 kmNNW (330°)7.2 km/hPartly Cloudy
9:00 PM29 °C13 °C37 %1008.1 hPa10 kmNW (310°)7.2 km/hScattered Clouds
10:00 PM29 °C13 °C37 %1009.1 hPa10 kmWSW (240°)10.8 km/hPartly Cloudy
11:00 PM27.2 °C16.1 °C40 %1008.1 hPa9.7 kmSW (230°)7.2 km/hClear
Hourly data recorded from UTAA, located 0 kilometers away from Ashgabat, Turkmenistan







STORIES FROM OUR PARTNERS